Weather History for KGWR - November, 2013

Change the Weather History Date:

Thursday, November 21, 2013

  Actual Average (KFAR) Record (KFAR)
Temperature  
Mean Temperature 14 °F 25 °F  
Max Temperature 21 °F 34 °F 59 °F (2012)
Min Temperature 8 °F 17 °F -14 °F (1896)
Degree Days  
Heating Degree Days 50 40  
Month to date heating degree days 703  
Since 1 July heating degree days 1579  
Cooling Degree Days 0 0  
Month to date cooling degree days 0  
Year to date cooling degree days 551  
Moisture  
Dew Point 8 °F    
Average Humidity 70    
Maximum Humidity 80    
Minimum Humidity 58    
Precipitation  
Precipitation 0.00 in 0.03 in 1.05 in (1893)
Month to date precipitation 0.75  
Year to date precipitation 21.53  
Snow  
Snow 0.00 in 0.30 in 10.50 in (1893)
Month to date snowfall 4.7  
Since 1 July snowfall 5.4  
Since 1 September snowfall 5.4  
Snow Depth -    
Sea Level Pressure  
Sea Level Pressure 30.49 in    
Wind  
Wind Speed 17 mph (NNW)    
Max Wind Speed 23 mph    
Max Gust Speed 30 mph    
Visibility 10 miles    
Events      
T = Trace of Precipitation, MM = Missing Value Source: NWS Daily Summary

Daily Weather History Graph

Daily Weather History Graph

Search for Another Location

Airport or City:

Trip Planner

Search our weather history database for the weather conditions in past years. The results will help you decide how hot, cold, wet, or windy it might be!

Date:

Astronomy

Nov. 21, 2013 Rise Set
Actual Time 7:40 AM CST 4:52 PM CST
Civil Twilight 7:07 AM CST 5:25 PM CST
Nautical Twilight 6:30 AM CST 6:02 PM CST
Astronomical Twilight 5:54 AM CST 6:38 PM CST
Moon 8:32 PM CST (11/21) 10:46 AM CST (11/21)
Length of Visible Light 10h 18m
Length of Day
9h 11m
Waning Gibbous, 85% of the Moon is Illuminated
Nov 21
Waning Gibbous
Nov 25
Last Quarter
Dec 2
New
Dec 9
First Quarter
Dec 17
Full

Hourly Weather History & Observations

Time (CST) Temp. Windchill Dew Point Humidity Pressure Visibility Wind Dir Wind Speed Gust Speed Precip Events Conditions
12:15 AM 21.2 °F 6.0 °F 15.8 °F 80% 30.20 in 10.0 mi NNW 19.6 mph 25.3 mph 0.00 in   Scattered Clouds
12:35 AM 21.2 °F 6.8 °F 15.8 °F 80% 30.21 in 10.0 mi NNW 17.3 mph 23.0 mph 0.00 in   Mostly Cloudy
12:55 AM 21.2 °F 6.0 °F 15.8 °F 80% 30.22 in 10.0 mi NNW 19.6 mph 25.3 mph 0.00 in   Overcast
1:15 AM 21.2 °F 5.2 °F 14.0 °F 74% 30.23 in 10.0 mi NNW 21.9 mph 28.8 mph 0.00 in   Overcast
1:35 AM 19.4 °F 3.6 °F 14.0 °F 80% 30.24 in 10.0 mi NNW 19.6 mph 27.6 mph 0.00 in   Overcast
1:55 AM 19.4 °F 2.8 °F 14.0 °F 80% 30.25 in 10.0 mi NNW 21.9 mph 27.6 mph 0.00 in   Overcast
2:15 AM 19.4 °F 4.1 °F 12.2 °F 74% 30.26 in 10.0 mi NNW 18.4 mph - 0.00 in   Overcast
2:35 AM 19.4 °F 3.6 °F 14.0 °F 80% 30.27 in 5.0 mi NNW 19.6 mph 26.5 mph 0.00 in   Mostly Cloudy
2:55 AM 19.4 °F 2.8 °F 12.2 °F 74% 30.28 in 9.0 mi NNW 21.9 mph 27.6 mph 0.00 in   Overcast
3:15 AM 19.4 °F 2.8 °F 12.2 °F 74% 30.30 in 10.0 mi NNW 21.9 mph 28.8 mph 0.00 in   Overcast
3:35 AM 19.4 °F 2.5 °F 12.2 °F 74% 30.31 in 10.0 mi NNW 23.0 mph - 0.00 in   Overcast
3:55 AM 19.4 °F 2.8 °F 12.2 °F 74% 30.32 in 10.0 mi NNW 21.9 mph - 0.00 in   Overcast
4:15 AM 19.4 °F 3.2 °F 12.2 °F 74% 30.33 in 10.0 mi NNW 20.7 mph 28.8 mph 0.00 in   Overcast
4:35 AM 19.4 °F 4.1 °F 12.2 °F 74% 30.34 in 10.0 mi NNW 18.4 mph 24.2 mph 0.00 in   Overcast
4:55 AM 17.6 °F 2.7 °F 12.2 °F 79% 30.35 in 10.0 mi NNW 16.1 mph - 0.00 in   Overcast
5:15 AM 19.4 °F 3.2 °F 12.2 °F 74% 30.35 in 10.0 mi NNW 20.7 mph 25.3 mph 0.00 in   Overcast
5:35 AM 19.4 °F 2.8 °F 12.2 °F 74% 30.37 in 10.0 mi NNW 21.9 mph - 0.00 in   Overcast
5:55 AM 19.4 °F 3.6 °F 10.4 °F 68% 30.38 in 10.0 mi North 19.6 mph 28.8 mph 0.00 in   Overcast
6:15 AM 19.4 °F 3.2 °F 12.2 °F 74% 30.39 in 10.0 mi NNW 20.7 mph 25.3 mph 0.00 in   Overcast
6:35 AM 17.6 °F 1.7 °F 10.4 °F 73% 30.40 in 10.0 mi North 18.4 mph 25.3 mph 0.00 in   Overcast
6:55 AM 17.6 °F 2.2 °F 10.4 °F 73% 30.42 in 10.0 mi North 17.3 mph 27.6 mph 0.00 in   Overcast
7:15 AM 17.6 °F 1.3 °F 10.4 °F 73% 30.43 in 10.0 mi North 19.6 mph 29.9 mph 0.00 in   Overcast
7:35 AM 17.6 °F 2.7 °F 10.4 °F 73% 30.43 in 10.0 mi North 16.1 mph 25.3 mph 0.00 in   Overcast
7:55 AM 17.6 °F 1.7 °F 10.4 °F 73% 30.45 in 10.0 mi North 18.4 mph 21.9 mph 0.00 in   Overcast
8:15 AM 17.6 °F 1.7 °F 10.4 °F 73% 30.47 in 10.0 mi North 18.4 mph 24.2 mph 0.00 in   Overcast
8:35 AM 17.6 °F 1.3 °F 8.6 °F 68% 30.48 in 10.0 mi North 19.6 mph 24.2 mph 0.00 in   Overcast
8:55 AM 17.6 °F 1.3 °F 8.6 °F 68% 30.49 in 10.0 mi North 19.6 mph 25.3 mph 0.00 in   Overcast
9:15 AM 17.6 °F 1.3 °F 8.6 °F 68% 30.50 in 10.0 mi North 19.6 mph 24.2 mph 0.00 in   Mostly Cloudy
9:35 AM 17.6 °F 1.3 °F 10.4 °F 73% 30.50 in 10.0 mi North 19.6 mph 24.2 mph 0.00 in   Mostly Cloudy
9:55 AM 17.6 °F 2.7 °F 8.6 °F 68% 30.50 in 10.0 mi North 16.1 mph 24.2 mph 0.00 in   Overcast
10:15 AM 17.6 °F 1.7 °F 10.4 °F 73% 30.51 in 10.0 mi NNW 18.4 mph 24.2 mph 0.00 in   Overcast
10:35 AM 17.6 °F 1.3 °F 8.6 °F 68% 30.52 in 10.0 mi North 19.6 mph 24.2 mph 0.00 in   Scattered Clouds
10:55 AM 17.6 °F 0.9 °F 8.6 °F 68% 30.53 in 10.0 mi NNW 20.7 mph 25.3 mph 0.00 in   Partly Cloudy
11:15 AM 17.6 °F 1.3 °F 8.6 °F 68% 30.53 in 10.0 mi North 19.6 mph 25.3 mph 0.00 in   Clear
11:35 AM 17.6 °F 2.2 °F 8.6 °F 68% 30.53 in 10.0 mi North 17.3 mph 23.0 mph 0.00 in   Partly Cloudy
11:55 AM 17.6 °F 0.9 °F 8.6 °F 68% 30.54 in 10.0 mi NNW 20.7 mph - 0.00 in   Clear
12:15 PM 17.6 °F 1.3 °F 6.8 °F 63% 30.54 in 10.0 mi North 19.6 mph 25.3 mph 0.00 in   Clear
12:35 PM 19.4 °F 3.6 °F 6.8 °F 58% 30.54 in 10.0 mi NNW 19.6 mph 25.3 mph 0.00 in   Clear
12:55 PM 17.6 °F 1.7 °F 6.8 °F 63% 30.54 in 10.0 mi North 18.4 mph 27.6 mph 0.00 in   Partly Cloudy
1:15 PM 17.6 °F 2.7 °F 6.8 °F 63% 30.54 in 10.0 mi North 16.1 mph 23.0 mph 0.00 in   Scattered Clouds
1:35 PM 17.6 °F 1.3 °F 6.8 °F 63% 30.54 in 10.0 mi NNW 19.6 mph 24.2 mph 0.00 in   Scattered Clouds
1:55 PM 17.6 °F 1.7 °F 6.8 °F 63% 30.54 in 10.0 mi NNW 18.4 mph 21.9 mph 0.00 in   Mostly Cloudy
2:15 PM 19.4 °F 5.0 °F 8.6 °F 63% 30.54 in 10.0 mi NNW 16.1 mph 21.9 mph 0.00 in   Mostly Cloudy
2:35 PM 19.4 °F 4.5 °F 8.6 °F 63% 30.54 in 10.0 mi NNW 17.3 mph - 0.00 in   Partly Cloudy
2:55 PM 17.6 °F 3.2 °F 8.6 °F 68% 30.54 in 10.0 mi North 15.0 mph 18.4 mph 0.00 in   Scattered Clouds
3:15 PM 17.6 °F 3.7 °F 8.6 °F 68% 30.55 in 10.0 mi North 13.8 mph - 0.00 in   Partly Cloudy
3:35 PM 17.6 °F 3.7 °F 6.8 °F 63% 30.55 in 10.0 mi North 13.8 mph - 0.00 in   Clear
3:55 PM 17.6 °F 3.2 °F 6.8 °F 63% 30.57 in 10.0 mi NNW 15.0 mph - 0.00 in   Clear
4:15 PM 17.6 °F 4.3 °F 6.8 °F 63% 30.58 in 10.0 mi NNW 12.7 mph - 0.00 in   Clear
4:35 PM 15.8 °F 1.4 °F 6.8 °F 68% 30.59 in 10.0 mi NNW 13.8 mph - 0.00 in   Clear
4:55 PM 15.8 °F 0.3 °F 6.8 °F 68% 30.60 in 10.0 mi NW 16.1 mph - 0.00 in   Clear
5:15 PM 14.0 °F 0.5 °F 5.0 °F 67% 30.60 in 10.0 mi NNW 11.5 mph - 0.00 in   Clear
5:35 PM 14.0 °F -1.4 °F 5.0 °F 67% 30.61 in 10.0 mi NW 15.0 mph - 0.00 in   Clear
5:55 PM 14.0 °F -0.8 °F 5.0 °F 67% 30.61 in 10.0 mi NW 13.8 mph - 0.00 in   Clear
6:15 PM 14.0 °F 1.2 °F 5.0 °F 67% 30.62 in 10.0 mi NW 10.4 mph - 0.00 in   Clear
6:35 PM 14.0 °F 1.2 °F 5.0 °F 67% 30.62 in 10.0 mi NW 10.4 mph - 0.00 in   Clear
6:55 PM 14.0 °F 2.9 °F 5.0 °F 67% 30.62 in 10.0 mi NW 8.1 mph - 0.00 in   Clear
7:15 PM 14.0 °F 1.2 °F 3.2 °F 62% 30.62 in 10.0 mi NW 10.4 mph - 0.00 in   Clear
7:35 PM 14.0 °F 0.5 °F 3.2 °F 62% 30.62 in 10.0 mi NW 11.5 mph - 0.00 in   Clear
7:55 PM 12.2 °F 0.7 °F 1.4 °F 62% 30.63 in 10.0 mi NNW 8.1 mph - 0.00 in   Clear
8:15 PM 10.4 °F -1.5 °F 1.4 °F 67% 30.62 in 10.0 mi NW 8.1 mph - 0.00 in   Clear
8:35 PM 12.2 °F 4.3 °F 3.2 °F 67% 30.62 in 10.0 mi West 4.6 mph - 0.00 in   Clear
8:55 PM 10.4 °F 2.2 °F 1.4 °F 67% 30.62 in 10.0 mi West 4.6 mph - 0.00 in   Clear
9:15 PM 8.6 °F -1.3 °F 3.2 °F 79% 30.62 in 10.0 mi West 5.8 mph - 0.00 in   Clear
9:35 PM 8.6 °F -1.3 °F 1.4 °F 73% 30.62 in 10.0 mi WSW 5.8 mph - 0.00 in   Clear
9:55 PM 10.4 °F -1.5 °F 3.2 °F 73% 30.61 in 10.0 mi SW 8.1 mph - 0.00 in   Clear
10:15 PM 10.4 °F -0.4 °F 3.2 °F 73% 30.61 in 10.0 mi WSW 6.9 mph - 0.00 in   Clear
10:35 PM 10.4 °F -0.4 °F 3.2 °F 73% 30.60 in 10.0 mi WSW 6.9 mph - 0.00 in   Clear
10:55 PM 10.4 °F -1.5 °F 3.2 °F 73% 30.59 in 10.0 mi SW 8.1 mph - 0.00 in   Clear
11:15 PM 10.4 °F 0.8 °F 5.0 °F 79% 30.59 in 10.0 mi SW 5.8 mph - 0.00 in   Clear
11:35 PM 10.4 °F -2.4 °F 5.0 °F 79% 30.59 in 10.0 mi SW 9.2 mph - 0.00 in   Clear
11:55 PM 10.4 °F -3.3 °F 5.0 °F 79% 30.58 in 10.0 mi SW 10.4 mph - 0.00 in   Clear